Weather in Ostakhnovo

Russia / Novgorod Oblast     58°55′38″N   34°30′24″E
temp.,
°C
wind,
m/s
gust,
m/s
humid.,
%
clouds,
%
prec.,
mm/h
press.,
hPa
HPBL,
m
7 march, sun
sun700:00−6ssw71591100 1.0 9981131
03:00−3sw61394100 2.5 9921106
06:00−3ssw51294100 1.6 987885
09:00−5w81389100 3.9 9861203
12:00−6w61267100 0.2 9871851
15:00−5w6116085 0.4 9872035
18:00−8w4118771 0.1 988813
21:00−8w6129285 0.9 9881070
8 march, mon
mon800:00−8nnw61092100 1.5 989820
03:00−11n41093100 1.6 993432
06:00−10n31094100 0.2 997585
09:00−10n4991100 0.3 1001649
12:00−10n4786100 0.1 1004685
15:00−10nnw4787100 0.2 1008753
18:00−12nnw4891100 0.1 1010593
21:00−16nnw3896100 0.1 1013251
9 march, tue
tue900:00−21nnw259848 0.0 101587
03:00−23nnw239824 0.0 101673
06:00−24n23980 0.0 101863
09:00−23n24955 0.0 1019176
12:00−17n238145 0.0 1020427
15:00−14nne237838 0.0 1022596
18:00−17nne12900 0.0 102220
21:00−21ne11950 0.0 102420
10 march, wed
wed1000:00−23ne11950 0.0 102520
03:00−23ne12940 0.0 102620
06:00−25ene11910 0.0 102620
09:00−22ene12840 0.0 102884
12:00−15ese12750 0.0 1028297
15:00−11ese126914 0.0 1027411
18:00−15se118499 0.0 102620
21:00−17s128799 0.0 102720
11 march, thu
thu1100:00−18s1287100 0.0 102620
03:00−20sse228571 0.0 102620
06:00−20se23850 0.0 102525
09:00−17se37770 0.0 1023224
12:00−10se510690 0.0 1021554
15:00−8se5108644 0.0 1018644
18:00−9sse41093100 0.3 1015577
21:00−9sse51294100 0.4 1011539